Miscellaneous Local Product
Issued by NWS Hastings, NE

Home | Current Version | Previous Version | Text Only | Print | Product List | Glossary Off
Versions: 1 2 3 4 5 6 7 8 9 10 11 12 13 14 15 16 17 18 19 20 21 22 23 24 25 26 27 28 29 30 31 32 33 34 35 36 37 38 39 40 41 42 43 44 45 46 47 48 49 50

791
AXUS43 KGID 220602
MISGRI

GID CWA HOURLY WEATHER ROUNDUP
NATIONAL WEATHER SERVICE HASTINGS NE
100 AM CDT SUN APR 22 2018

NOTE: "FAIR" INDICATES FEW OR NO CLOUDS BELOW 12,000 FEET WITH NO
SIGNIFICANT WEATHER AND/OR OBSTRUCTIONS TO VISIBILITY.

...SOUTH CENTRAL NEBRASKA...

CITY           SKY/WX    TMP DP  RH WIND       PRES   REMARKS
GRAND ISLAND   CLOUDY    41  39  93 CALM      30.27F FOG
KEARNEY        CLOUDY    40  39  97 E5        30.26F
HASTINGS       LGT RAIN  41  40  96 N5        30.25F
ORD            CLOUDY    41  38  89 CALM      30.25S
YORK             N/A     43  41  93 CALM      30.25F
AURORA         RAIN      41  40  95 NW5       30.25F
LEXINGTON      CLOUDY    42  39  92 CALM      30.26S
HOLDREGE       CLOUDY    40  40  98 NE8       30.25S WCI  35
HEBRON         CLOUDY    44  41  91 CALM      30.23F

...NEBRASKA PANHANDLE...

CITY           SKY/WX    TMP DP  RH WIND       PRES   REMARKS
CHADRON        CLEAR     38  34  85 S8        30.17S WCI  32
ALLIANCE       CLOUDY    37  37 100 S10       30.18S FOG     WCI  30
SCOTTSBLUFF    CLEAR     35  35 100 SE9       30.18S WCI  28
SIDNEY         CLOUDY    37  33  85 SE7       30.21R WCI  32

...WESTERN AND NORTH CENTRAL NEBRASKA...

CITY           SKY/WX    TMP DP  RH WIND       PRES   REMARKS
VALENTINE      PTCLDY    39  35  86 S6        30.24S WCI  35
AINSWORTH      CLOUDY    39  38  94 S3        30.25S
ONEILL         CLOUDY    43  38  82 CALM      30.27R
BROKEN BOW     CLOUDY    41  37  86 SE5       30.25R
IMPERIAL       CLOUDY    39  39 100 CALM      30.22F
NORTH PLATTE   CLOUDY    41  38  89 SE5       30.25S
MCCOOK         CLOUDY    41  40  96 NE3       30.25S

...EASTERN NEBRASKA...

CITY           SKY/WX    TMP DP  RH WIND       PRES   REMARKS
NORFOLK        CLOUDY    42  36  79 CALM      30.26S
SO SIOUX CITY  CLOUDY    41  34  76 CALM      30.27S
TEKAMAH        CLOUDY    40  31  70 N7        30.25S
COLUMBUS       CLOUDY    42  34  73 N3        30.26F
ALBION         CLOUDY    42  39  89 CALM      30.27R
OMAHA EPPLEY   CLOUDY    52  27  38 E12       30.24S
MILLARD        CLOUDY    53  29  40 E6        30.24S
LINCOLN        CLOUDY    47  34  60 NW6       30.24F
NEBRASKA CITY  CLOUDY    51  30  44 E7        30.22S
BEATRICE       CLOUDY    46  38  74 N3        30.22S
FALLS CITY     CLOUDY    50  32  50 NE6       30.19S

...NORTHERN KANSAS...

CITY           SKY/WX    TMP DP  RH WIND       PRES   REMARKS
GOODLAND       CLOUDY    39  38  96 CALM      30.21F FOG
HILL CITY      CLOUDY    43  42  97 NE9       30.25S FOG
NORTON         CLOUDY    41  39  93 NE3       30.24S
PHILLIPSBURG   CLOUDY    43  43 100 N5        30.25S
SMITH CENTER   RAIN      41  39  93 NE7       30.25F
BELOIT         CLOUDY    41  39  93 CALM      30.22F
HAYS           CLOUDY    43  41  93 N9        30.22F
RUSSELL        LGT RAIN  43  43 100 N8        30.20S FOG
CONCORDIA      LGT RAIN  43  41  93 NW10      30.20F
SALINA         CLOUDY    46  44  93 NW12      30.17F
TOPEKA         CLOUDY    51  38  60 N6        30.12F



USA.gov is the U.S. government's official web portal to all federal, state and local government web resources and services.